Date String (YYYY-MM-DD hh:mm:ss) UTC,Instrument flags,Ambient pressure (hPa),Sample flow (lpm),Bypass flow (lpm),Sample temperature (°C),Ambient temperature (°C),ASC tube jacket temperature (°C),LED temperature (°C),Box temperature (°C),Sample RH (%),Span deviation,Mass concentration (μg/m³),Mass concentration (μg/m³),Mass concentration (μg/m³)
DateTimeUTC,F1_M11,P_M11,Q1_M11,Q2_M11,T1_M11,T2_M11,T3_M11,T4_M11,T5_M11,U1_M11,ZSPAN_M11,X2_M11,X0_M11,X1_M11
2023-02-10 06:00:00,,0835.7,4.98,0.00,21.7,22.5,00.0,30.3,23.7,08.2,0000.0,0003.58,0008.34,0002.96
2023-02-10 06:01:00,,0835.7,5.00,0.00,21.8,22.4,00.0,30.4,23.8,08.2,0000.0,0003.59,0008.20,0002.96
2023-02-10 06:02:00,,0835.7,5.00,0.00,21.8,22.0,00.0,30.5,23.7,08.1,0000.0,0003.58,0008.17,0002.98
2023-02-10 06:03:00,,0835.7,5.01,0.00,21.8,21.5,00.0,30.5,23.6,08.2,0000.0,0003.59,0007.84,0002.98
2023-02-10 06:04:00,,0835.8,4.98,0.00,21.8,21.2,00.0,30.5,23.6,08.2,0000.0,0003.62,0007.71,0002.99
2023-02-10 06:05:00,,0835.8,5.01,0.00,21.8,21.0,00.0,30.5,23.6,08.2,0000.0,0003.66,0007.86,0003.01
2023-02-10 06:06:00,,0835.8,4.99,0.00,21.8,20.8,00.0,30.6,23.6,08.2,0000.0,0003.66,0008.05,0003.02
2023-02-10 06:07:00,,0835.8,5.00,0.00,21.8,20.6,00.0,30.6,23.5,08.2,0000.0,0003.66,0008.98,0003.04
2023-02-10 06:08:00,,0835.8,4.98,0.00,21.8,20.5,00.0,30.6,23.5,08.2,0000.0,0003.64,0009.05,0003.06
2023-02-10 06:09:00,,0835.8,4.94,0.00,21.8,20.5,00.0,30.6,23.5,08.2,0000.0,0003.67,0009.28,0003.07
2023-02-10 06:10:00,,0835.8,4.97,0.00,21.8,20.4,00.0,30.6,23.5,08.2,0000.0,0003.68,0009.92,0003.08
2023-02-10 06:11:00,,0835.8,5.00,0.00,21.8,20.4,00.0,30.6,23.5,08.3,0000.0,0003.72,0010.44,0003.08
2023-02-10 06:12:00,,0835.8,5.01,0.00,21.8,20.3,00.0,30.6,23.4,08.3,0000.0,0003.71,0010.64,0003.09
2023-02-10 06:13:00,,0835.8,5.01,0.00,21.8,20.3,00.0,30.6,23.4,08.3,0000.0,0003.71,0010.68,0003.09
2023-02-10 06:14:00,,0835.8,5.02,0.00,21.8,20.2,00.0,30.6,23.4,08.3,0000.0,0003.68,0010.65,0003.09
2023-02-10 06:15:00,,0835.7,5.04,0.00,21.7,20.3,00.0,30.6,23.4,08.4,0000.0,0003.66,0011.32,0003.10
2023-02-10 06:16:00,,0835.8,4.99,0.00,21.8,21.1,00.0,30.6,23.6,08.3,0000.0,0003.65,0011.37,0003.09
2023-02-10 06:17:00,,0835.7,5.06,0.00,21.9,22.2,00.0,30.6,23.9,08.3,0000.0,0003.69,0011.52,0003.08
2023-02-10 06:18:00,,0835.8,4.96,0.00,22.0,22.7,00.0,30.6,24.1,08.3,0000.0,0003.71,0010.55,0003.08
2023-02-10 06:19:00,,0835.8,5.00,0.00,22.1,22.4,00.0,30.7,24.1,08.3,0000.0,0003.70,0010.15,0003.05
2023-02-10 06:20:00,,0835.7,5.02,0.00,22.1,22.0,00.0,30.7,24.0,08.3,0000.0,0003.66,0009.77,0003.03
2023-02-10 06:21:00,,0835.7,5.00,0.00,22.1,21.6,00.0,30.8,23.9,08.3,0000.0,0003.64,0009.47,0003.01
2023-02-10 06:22:00,,0835.8,4.99,0.00,22.1,21.3,00.0,30.8,23.9,08.3,0000.0,0003.59,0009.25,0002.99
2023-02-10 06:23:00,,0835.7,4.98,0.00,22.1,21.1,00.0,30.8,23.8,08.3,0000.0,0003.59,0008.95,0002.99
2023-02-10 06:24:00,,0835.7,4.98,0.00,22.1,20.9,00.0,30.8,23.8,08.3,0000.0,0003.63,0009.10,0002.98
2023-02-10 06:25:00,,0835.7,5.01,0.00,22.1,20.8,00.0,30.8,23.8,08.3,0000.0,0003.65,0009.09,0002.99
2023-02-10 06:26:00,,0835.7,5.01,0.00,22.1,20.7,00.0,30.8,23.8,08.3,0000.0,0003.68,0008.61,0002.98
2023-02-10 06:27:00,,0835.7,5.03,0.00,22.0,20.6,00.0,30.8,23.7,08.3,0000.0,0003.70,0008.73,0002.97
2023-02-10 06:28:00,,0835.8,5.00,0.00,22.0,20.6,00.0,30.8,23.7,08.3,0000.0,0003.70,0008.64,0002.96
2023-02-10 06:29:00,,0835.7,5.00,0.00,22.0,20.5,00.0,30.8,23.7,08.3,0000.0,0003.67,0008.60,0002.94
2023-02-10 06:30:00,,0835.8,5.00,0.00,22.0,20.5,00.0,30.8,23.7,08.3,0000.0,0003.68,0008.64,0002.93
2023-02-10 06:31:00,,0835.7,4.98,0.00,22.0,20.4,00.0,30.8,23.7,08.3,0000.0,0003.69,0008.69,0002.93
2023-02-10 06:32:00,,0835.7,5.00,0.00,22.0,20.4,00.0,30.8,23.7,08.3,0000.0,0003.71,0009.07,0002.93
2023-02-10 06:33:00,,0835.8,4.99,0.00,22.0,20.6,00.0,30.8,23.7,08.3,0000.0,0003.73,0009.59,0002.94
2023-02-10 06:34:00,,0835.8,4.99,0.00,22.0,21.5,00.0,30.8,23.9,08.3,0000.0,0003.76,0009.63,0002.94
2023-02-10 06:35:00,,0835.8,4.96,0.00,22.2,22.6,00.0,30.8,24.2,08.3,0000.0,0003.72,0009.41,0002.94
2023-02-10 06:36:00,,0835.9,5.02,0.00,22.3,22.7,00.0,30.9,24.3,08.2,0000.0,0003.71,0009.31,0002.92
2023-02-10 06:37:00,,0835.9,4.98,0.00,22.3,22.2,00.0,30.9,24.2,08.2,0000.0,0003.70,0009.32,0002.93
2023-02-10 06:38:00,,0835.9,5.02,0.00,22.3,21.7,00.0,30.9,24.1,08.2,0000.0,0003.66,0009.29,0002.92
2023-02-10 06:39:00,,0835.9,5.01,0.00,22.3,21.3,00.0,31.0,24.0,08.2,0000.0,0003.63,0009.93,0002.90
2023-02-10 06:40:00,,0835.9,5.00,0.00,22.2,21.0,00.0,31.0,23.9,08.2,0000.0,0003.63,0009.98,0002.89
2023-02-10 06:41:00,,0835.8,4.96,0.00,22.2,20.7,00.0,31.0,23.9,08.3,0000.0,0003.62,0009.98,0002.89
2023-02-10 06:42:00,,0835.8,5.03,0.00,22.1,20.5,00.0,31.0,23.8,08.3,0000.0,0003.57,0010.11,0002.86
2023-02-10 06:43:00,,0835.8,5.00,0.00,22.1,20.3,00.0,31.0,23.7,08.3,0000.0,0003.54,0009.87,0002.84
2023-02-10 06:44:00,,0835.8,4.99,0.00,22.0,20.2,00.0,31.0,23.6,08.4,0000.0,0003.50,0008.49,0002.81
2023-02-10 06:45:00,,0835.8,5.00,0.00,22.0,20.0,00.0,30.9,23.5,08.4,0000.0,0003.48,0008.48,0002.78
2023-02-10 06:46:00,,0835.7,4.99,0.00,22.0,19.9,00.0,30.9,23.5,08.4,0000.0,0003.49,0008.53,0002.77
2023-02-10 06:47:00,,0835.7,4.97,0.00,21.9,20.2,00.0,30.9,23.5,08.4,0000.0,0003.50,0008.96,0002.75
2023-02-10 06:48:00,,0835.7,5.01,0.00,22.0,21.3,00.0,30.9,23.8,08.4,0000.0,0003.50,0009.16,0002.72
2023-02-10 06:49:00,,0835.6,5.00,0.00,22.1,22.3,00.0,30.8,24.0,08.3,0000.0,0003.52,0009.32,0002.69
2023-02-10 06:50:00,,0835.6,4.98,0.00,22.2,22.2,00.0,30.9,24.1,08.3,0000.0,0003.55,0008.46,0002.69
2023-02-10 06:51:00,,0835.6,4.97,0.00,22.2,21.6,00.0,30.9,23.9,08.3,0000.0,0003.56,0008.55,0002.70
2023-02-10 06:52:00,,0835.5,4.91,0.00,22.1,21.0,00.0,30.9,23.8,08.2,0000.0,0003.58,0009.16,0002.71
2023-02-10 06:53:00,,0835.5,4.93,0.00,22.1,20.6,00.0,30.9,23.6,08.1,0000.0,0003.60,0009.23,0002.71
2023-02-10 06:54:00,,0835.6,4.96,0.00,22.0,20.2,00.0,30.9,23.5,07.9,0000.0,0003.56,0009.01,0002.67
2023-02-10 06:55:00,,0835.5,5.00,0.00,21.9,19.9,00.0,30.9,23.4,07.8,0000.0,0003.55,0008.87,0002.65
2023-02-10 06:56:00,,0835.6,4.98,0.00,21.9,19.6,00.0,30.9,23.3,07.7,0000.0,0003.48,0008.93,0002.61
2023-02-10 06:57:00,,0835.6,5.01,0.00,21.8,19.5,00.0,30.8,23.2,07.7,0000.0,0003.43,0009.21,0002.58
2023-02-10 06:58:00,,0835.6,5.02,0.00,21.8,20.4,00.0,30.8,23.4,07.6,0000.0,0003.35,0008.64,0002.55
2023-02-10 06:59:00,,0835.6,5.05,0.00,21.9,21.6,00.0,30.8,23.7,07.5,0000.0,0003.27,0008.19,0002.52
